,,PA_Meas_PMT16A,,PR_Meas_QMR101_102,,RH_Meas_QMH101,,SR_Meas_QMS101,,TA_Meas_QMH101,,GenWind,,GenWind,
time,status,PA,status,PR,status,RH,status,SR,status,TA,status,DirAvg,status,SpdAvg,
2012-02-26, 00:00:04,VALID,915.32,VALID,0,VALID,97.7017,VALID,0,VALID,19.8588,VALID,68,VALID,0.630469,
2012-02-26, 00:01:04,VALID,915.33,VALID,0,VALID,97.7246,VALID,0,VALID,19.8378,VALID,68,VALID,0.4375,
2012-02-26, 00:02:04,VALID,915.318,VALID,0,VALID,97.6788,VALID,0,VALID,19.8573,VALID,68,VALID,0.6,
2012-02-26, 00:03:04,VALID,915.312,VALID,0,VALID,97.7093,VALID,0,VALID,19.8768,VALID,68,VALID,0.630859,
2012-02-26, 00:04:04,VALID,915.33,VALID,0,VALID,97.6941,VALID,0,VALID,19.8768,VALID,68,VALID,0.705859,
2012-02-26, 00:05:04,VALID,915.31,VALID,0,VALID,97.7017,VALID,0,VALID,19.8768,VALID,69,VALID,0.505078,
2012-02-26, 00:06:04,VALID,915.315,VALID,0,VALID,97.6865,VALID,0,VALID,19.8573,VALID,69,VALID,0.655469,
2012-02-26, 00:07:04,VALID,915.375,VALID,0,VALID,97.6712,VALID,0,VALID,19.8588,VALID,70,VALID,0.556641,
2012-02-26, 00:08:04,VALID,915.359,VALID,0,VALID,97.6941,VALID,0,VALID,19.8183,VALID,132,VALID,0.814062,
2012-02-26, 00:09:04,VALID,915.355,VALID,0,VALID,97.6788,VALID,0,VALID,19.8183,VALID,132,VALID,0.704687,
2012-02-26, 00:10:04,VALID,915.349,VALID,0,VALID,97.6712,VALID,0,VALID,19.7988,VALID,132,VALID,0.634375,
2012-02-26, 00:11:04,VALID,915.33,VALID,0,VALID,97.6941,VALID,0,VALID,19.7793,VALID,132,VALID,0.425781,
2012-02-26, 00:12:04,VALID,915.377,VALID,0,VALID,97.6788,VALID,0,VALID,19.7808,VALID,132,VALID,0,
2012-02-26, 00:13:04,VALID,915.308,VALID,0,VALID,97.6865,VALID,0,VALID,19.7598,VALID,132,VALID,0.300391,
2012-02-26, 00:14:04,VALID,915.336,VALID,0,VALID,97.6865,VALID,0,VALID,19.7808,VALID,132,VALID,0.436719,
2012-02-26, 00:15:04,VALID,915.319,VALID,0,VALID,97.6788,VALID,0,VALID,19.7598,VALID,132,VALID,0.554688,
2012-02-26, 00:16:04,VALID,915.35,VALID,0,VALID,97.6788,VALID,0,VALID,19.7598,VALID,132,VALID,0.557422,
2012-02-26, 00:17:04,VALID,915.32,VALID,0,VALID,97.6865,VALID,0,VALID,19.7598,VALID,132,VALID,0.791406,
2012-02-26, 00:18:04,VALID,915.343,VALID,0,VALID,97.6865,VALID,0,VALID,19.7613,VALID,132,VALID,1.01563,
2012-02-26, 00:19:04,VALID,915.342,VALID,0,VALID,97.6941,VALID,0,VALID,19.7418,VALID,132,VALID,1.02461,
2012-02-26, 00:20:04,VALID,915.285,VALID,0,VALID,97.6941,VALID,0.107441,VALID,19.7418,VALID,132,VALID,0.701953,
2012-02-26, 00:21:04,VALID,915.274,VALID,0,VALID,97.6941,VALID,0,VALID,19.7013,VALID,132,VALID,0.480078,
2012-02-26, 00:22:04,VALID,915.287,VALID,0,VALID,97.6865,VALID,0,VALID,19.7013,VALID,132,VALID,0.384375,
2012-02-26, 00:23:04,VALID,915.256,VALID,0,VALID,97.7017,VALID,0,VALID,19.7028,VALID,132,VALID,0.498828,
2012-02-26, 00:24:04,VALID,915.212,VALID,0,VALID,97.7017,VALID,0,VALID,19.6623,VALID,132,VALID,0.701563,
2012-02-26, 00:25:04,VALID,915.202,VALID,0,VALID,97.7093,VALID,0,VALID,19.6428,VALID,132,VALID,0.801562,
2012-02-26, 00:26:04,VALID,915.151,VALID,0,VALID,97.7017,VALID,0,VALID,19.6623,VALID,132,VALID,0.627734,
2012-02-26, 00:27:04,VALID,915.128,VALID,0,VALID,97.6941,VALID,0,VALID,19.6818,VALID,132,VALID,1.09648,
2012-02-26, 00:28:04,VALID,915.054,VALID,0,VALID,97.7169,VALID,0,VALID,19.7223,VALID,132,VALID,0.94375,
2012-02-26, 00:29:04,VALID,915.019,VALID,0,VALID,97.7322,VALID,0,VALID,19.7028,VALID,132,VALID,0.794141,
2012-02-26, 00:30:04,VALID,914.952,VALID,0,VALID,97.7169,VALID,0,VALID,19.6833,VALID,132,VALID,0.892969,
2012-02-26, 00:31:04,VALID,914.89,VALID,0,VALID,97.7398,VALID,0,VALID,19.7223,VALID,132,VALID,1.06289,
2012-02-26, 00:32:04,VALID,914.853,VALID,0,VALID,97.7551,VALID,0,VALID,19.7433,VALID,128,VALID,1.17539,
2012-02-26, 00:33:04,VALID,914.82,VALID,0,VALID,97.7246,VALID,0,VALID,19.7028,VALID,129,VALID,0.994531,
2012-02-26, 00:34:04,VALID,914.781,VALID,0,VALID,97.7322,VALID,0,VALID,19.7028,VALID,121,VALID,1.23359,
2012-02-26, 00:35:04,VALID,914.734,VALID,0,VALID,97.7169,VALID,0,VALID,19.7028,VALID,133,VALID,1.16758,
2012-02-26, 00:36:04,VALID,914.711,VALID,0,VALID,97.7246,VALID,0,VALID,19.7028,VALID,127,VALID,0.923828,
2012-02-26, 00:37:04,VALID,914.691,VALID,0,VALID,97.7246,VALID,0,VALID,19.7028,VALID,127,VALID,0.942187,
2012-02-26, 00:38:04,VALID,914.701,VALID,0,VALID,97.7322,VALID,0,VALID,19.7028,VALID,127,VALID,1.37461,
2012-02-26, 00:39:04,VALID,914.705,VALID,0,VALID,97.7398,VALID,0,VALID,19.7028,VALID,127,VALID,1.025,
2012-02-26, 00:40:04,VALID,914.663,VALID,0,VALID,97.7398,VALID,0,VALID,19.7028,VALID,127,VALID,0.85,
2012-02-26, 00:41:04,VALID,914.611,VALID,0,VALID,97.7398,VALID,0,VALID,19.7223,VALID,127,VALID,0.732031,
2012-02-26, 00:42:04,VALID,914.555,VALID,0,VALID,97.7474,VALID,0,VALID,19.7028,VALID,127,VALID,0.740234,
2012-02-26, 00:43:04,VALID,914.547,VALID,0,VALID,97.7398,VALID,0,VALID,19.7028,VALID,127,VALID,0.282031,
2012-02-26, 00:44:04,VALID,914.515,VALID,0,VALID,97.7322,VALID,0,VALID,19.7223,VALID,127,VALID,0.315625,
2012-02-26, 00:45:04,VALID,914.536,VALID,0,VALID,97.7474,VALID,0,VALID,19.7433,VALID,167,VALID,0.504297,
2012-02-26, 00:46:04,VALID,914.563,VALID,0,VALID,97.7551,VALID,0,VALID,19.7223,VALID,163,VALID,0.635938,
2012-02-26, 00:47:04,VALID,914.587,VALID,0,VALID,97.7551,VALID,0,VALID,19.6833,VALID,148,VALID,0.4375,
2012-02-26, 00:48:04,VALID,914.579,VALID,0,VALID,97.7474,VALID,0,VALID,19.6833,VALID,137,VALID,0.660156,
2012-02-26, 00:49:04,VALID,914.622,VALID,0,VALID,97.7627,VALID,0,VALID,19.6833,VALID,137,VALID,0.693359,
2012-02-26, 00:50:04,VALID,914.602,VALID,0,VALID,97.7703,VALID,0,VALID,19.6638,VALID,137,VALID,0.458984,
2012-02-26, 00:51:04,VALID,914.586,VALID,0,VALID,97.7703,VALID,0,VALID,19.6848,VALID,137,VALID,0.516016,
2012-02-26, 00:52:04,VALID,914.574,VALID,0,VALID,97.7398,VALID,0,VALID,19.6833,VALID,137,VALID,0.182422,
2012-02-26, 00:53:04,VALID,914.581,VALID,0,VALID,97.7703,VALID,0,VALID,19.6833,VALID,137,VALID,0,
2012-02-26, 00:54:04,VALID,914.583,VALID,0,VALID,97.7703,VALID,0,VALID,19.6623,VALID,137,VALID,0,
2012-02-26, 00:55:04,VALID,914.578,VALID,0,VALID,97.7627,VALID,0,VALID,19.6833,VALID,137,VALID,0,
2012-02-26, 00:56:04,VALID,914.602,VALID,0,VALID,97.7703,VALID,0,VALID,19.7028,VALID,137,VALID,0,
2012-02-26, 00:57:04,VALID,914.623,VALID,0,VALID,97.7703,VALID,0,VALID,19.7223,VALID,137,VALID,0.0109375,
2012-02-26, 00:58:04,VALID,914.662,VALID,0,VALID,97.7627,VALID,0,VALID,19.7028,VALID,137,VALID,0.167578,
2012-02-26, 00:59:04,VALID,914.669,VALID,0,VALID,97.7627,VALID,0,VALID,19.7043,VALID,137,VALID,0,
2012-02-26, 01:00:04,VALID,914.702,VALID,0,VALID,97.7703,VALID,0,VALID,19.7028,VALID,137,VALID,0,
2012-02-26, 01:01:04,VALID,914.745,VALID,0,VALID,97.7551,VALID,0,VALID,19.6833,VALID,137,VALID,0,
2012-02-26, 01:02:04,VALID,914.717,VALID,0,VALID,97.7779,VALID,0,VALID,19.6833,VALID,137,VALID,0.222266,
2012-02-26, 01:03:04,VALID,914.741,VALID,0,VALID,97.7856,VALID,0,VALID,19.6638,VALID,137,VALID,0.278125,
2012-02-26, 01:04:04,VALID,914.687,VALID,0,VALID,97.7474,VALID,0,VALID,19.6638,VALID,137,VALID,0,
2012-02-26, 01:05:04,VALID,914.691,VALID,0,VALID,97.7703,VALID,0,VALID,19.6638,VALID,137,VALID,0,
2012-02-26, 01:06:04,VALID,914.653,VALID,0,VALID,97.7856,VALID,0,VALID,19.6443,VALID,137,VALID,0,
2012-02-26, 01:07:04,VALID,914.677,VALID,0,VALID,97.7703,VALID,0,VALID,19.6653,VALID,137,VALID,0,
2012-02-26, 01:08:04,VALID,914.643,VALID,0,VALID,97.7856,VALID,0,VALID,19.6443,VALID,137,VALID,0,
2012-02-26, 01:09:04,VALID,914.65,VALID,0,VALID,97.7703,VALID,0,VALID,19.6443,VALID,137,VALID,0.305078,
2012-02-26, 01:10:04,VALID,914.655,VALID,0,VALID,97.7703,VALID,0,VALID,19.6053,VALID,137,VALID,0.253516,
2012-02-26, 01:11:04,VALID,914.676,VALID,0,VALID,97.7856,VALID,0,VALID,19.6053,VALID,137,VALID,0.284766,
2012-02-26, 01:12:04,VALID,914.675,VALID,0,VALID,97.7856,VALID,0,VALID,19.5468,VALID,137,VALID,0.465625,
2012-02-26, 01:13:04,VALID,914.69,VALID,0,VALID,97.8084,VALID,0,VALID,19.5273,VALID,137,VALID,0,
2012-02-26, 01:14:04,VALID,914.686,VALID,0,VALID,97.7779,VALID,0,VALID,19.5078,VALID,137,VALID,0,
2012-02-26, 01:15:04,VALID,914.698,VALID,0,VALID,97.7856,VALID,0,VALID,19.5273,VALID,137,VALID,0,
2012-02-26, 01:16:04,VALID,914.671,VALID,0,VALID,97.7856,VALID,0,VALID,19.5078,VALID,137,VALID,0,
2012-02-26, 01:17:04,VALID,914.678,VALID,0,VALID,97.7627,VALID,0,VALID,19.4493,VALID,137,VALID,0.489844,
2012-02-26, 01:18:04,VALID,914.655,VALID,0,VALID,97.7627,VALID,0,VALID,19.4103,VALID,137,VALID,0.620703,
2012-02-26, 01:19:04,VALID,914.616,VALID,0,VALID,97.7474,VALID,0,VALID,19.3323,VALID,137,VALID,0.442578,
2012-02-26, 01:20:04,VALID,914.63,VALID,0,VALID,97.7627,VALID,0,VALID,19.3323,VALID,137,VALID,0.364062,
2012-02-26, 01:21:04,VALID,914.577,VALID,0,VALID,97.7627,VALID,0,VALID,19.3908,VALID,137,VALID,0.357031,
2012-02-26, 01:22:04,VALID,914.566,VALID,0,VALID,97.7932,VALID,0,VALID,19.4103,VALID,136,VALID,0.561719,
2012-02-26, 01:23:04,VALID,914.585,VALID,0,VALID,97.8008,VALID,0,VALID,19.5078,VALID,137,VALID,0.739453,
2012-02-26, 01:24:04,VALID,914.579,VALID,0,VALID,97.7627,VALID,0,VALID,19.4103,VALID,137,VALID,0.85,
2012-02-26, 01:25:04,VALID,914.538,VALID,0,VALID,97.7856,VALID,0,VALID,19.3518,VALID,137,VALID,1.03828,
2012-02-26, 01:26:04,VALID,914.476,VALID,0,VALID,97.8008,VALID,0,VALID,19.3518,VALID,137,VALID,1.20039,
2012-02-26, 01:27:04,VALID,914.417,VALID,0,VALID,97.7932,VALID,0,VALID,19.3923,VALID,137,VALID,0.812109,
2012-02-26, 01:28:04,VALID,914.371,VALID,0,VALID,97.7932,VALID,0,VALID,19.3518,VALID,137,VALID,0.772656,
2012-02-26, 01:29:04,VALID,914.306,VALID,0,VALID,97.8008,VALID,0,VALID,19.3308,VALID,137,VALID,0.894531,
2012-02-26, 01:30:04,VALID,914.262,VALID,0,VALID,97.7932,VALID,0,VALID,19.3113,VALID,137,VALID,0.741406,
2012-02-26, 01:31:04,VALID,914.197,VALID,0,VALID,97.8084,VALID,0,VALID,19.3113,VALID,136,VALID,0.773828,
2012-02-26, 01:32:04,VALID,914.186,VALID,0,VALID,97.816,VALID,0,VALID,19.2918,VALID,136,VALID,0.838672,
2012-02-26, 01:33:04,VALID,914.157,VALID,0,VALID,97.816,VALID,0,VALID,19.2723,VALID,136,VALID,0.926562,
2012-02-26, 01:34:04,VALID,914.152,VALID,0,VALID,97.8237,VALID,0,VALID,19.2933,VALID,136,VALID,1.12773,
2012-02-26, 01:35:04,VALID,914.085,VALID,0,VALID,97.816,VALID,0,VALID,19.3128,VALID,136,VALID,1.04805,
2012-02-26, 01:36:04,VALID,914.097,VALID,0,VALID,97.8084,VALID,0,VALID,19.2933,VALID,136,VALID,0.804688,
2012-02-26, 01:37:04,VALID,914.045,VALID,0,VALID,97.8237,VALID,0,VALID,19.2723,VALID,136,VALID,0.708594,
2012-02-26, 01:38:04,VALID,914.018,VALID,0,VALID,97.8313,VALID,0,VALID,19.2933,VALID,136,VALID,0.5375,
2012-02-26, 01:39:04,VALID,914,VALID,0,VALID,97.8313,VALID,0,VALID,19.3128,VALID,136,VALID,0.539453,
2012-02-26, 01:40:04,VALID,913.976,VALID,0,VALID,97.8313,VALID,0,VALID,19.3113,VALID,136,VALID,0.4125,
2012-02-26, 01:41:04,VALID,914.027,VALID,0,VALID,97.8389,VALID,0,VALID,19.2918,VALID,136,VALID,0,
2012-02-26, 01:42:04,VALID,913.981,VALID,0,VALID,97.8313,VALID,0,VALID,19.2933,VALID,136,VALID,0,
2012-02-26, 01:43:04,VALID,913.953,VALID,0,VALID,97.8542,VALID,0,VALID,19.2738,VALID,136,VALID,0,
2012-02-26, 01:44:04,VALID,913.951,VALID,0,VALID,97.8465,VALID,0.107441,VALID,19.2723,VALID,136,VALID,0,
2012-02-26, 01:45:04,VALID,913.94,VALID,0,VALID,97.8313,VALID,0,VALID,19.3323,VALID,136,VALID,0,
2012-02-26, 01:46:04,VALID,913.967,VALID,0,VALID,97.8465,VALID,0,VALID,19.3323,VALID,136,VALID,0,
2012-02-26, 01:47:04,VALID,913.99,VALID,0,VALID,97.8465,VALID,0,VALID,19.3503,VALID,136,VALID,0,
2012-02-26, 01:48:04,VALID,913.97,VALID,0,VALID,97.8618,VALID,0,VALID,19.3698,VALID,136,VALID,0.137109,
2012-02-26, 01:49:04,VALID,913.977,VALID,0,VALID,97.8465,VALID,0,VALID,19.3518,VALID,136,VALID,0.375391,
2012-02-26, 01:50:04,VALID,913.968,VALID,0,VALID,97.8465,VALID,0,VALID,19.2918,VALID,136,VALID,0.737109,
2012-02-26, 01:51:04,VALID,913.934,VALID,0,VALID,97.8542,VALID,0,VALID,19.2933,VALID,136,VALID,0.516016,
2012-02-26, 01:52:04,VALID,913.925,VALID,0,VALID,97.8542,VALID,0,VALID,19.2933,VALID,136,VALID,0.260938,
2012-02-26, 01:53:04,VALID,913.884,VALID,0,VALID,97.8465,VALID,0,VALID,19.2723,VALID,136,VALID,0.740625,
2012-02-26, 01:54:04,VALID,913.855,VALID,0,VALID,97.8542,VALID,0.107441,VALID,19.2528,VALID,136,VALID,0.443359,
2012-02-26, 01:55:04,VALID,913.855,VALID,0,VALID,97.8389,VALID,0,VALID,19.2738,VALID,136,VALID,0.249609,
2012-02-26, 01:56:04,VALID,913.793,VALID,0,VALID,97.8465,VALID,0,VALID,19.2933,VALID,136,VALID,0.386328,
2012-02-26, 01:57:04,VALID,913.772,VALID,0,VALID,97.8694,VALID,0,VALID,19.2723,VALID,136,VALID,0.146094,
2012-02-26, 01:58:04,VALID,913.73,VALID,0,VALID,97.8618,VALID,0,VALID,19.2933,VALID,136,VALID,0.572266,
2012-02-26, 01:59:04,VALID,913.721,VALID,0,VALID,97.8694,VALID,0,VALID,19.2723,VALID,136,VALID,0.348437,
2012-02-26, 02:00:04,VALID,913.72,VALID,0,VALID,97.8542,VALID,0,VALID,19.3113,VALID,136,VALID,0.00742187,
2012-02-26, 02:01:04,VALID,913.682,VALID,0,VALID,97.8618,VALID,0,VALID,19.3128,VALID,136,VALID,0.434375,
2012-02-26, 02:02:04,VALID,913.693,VALID,0,VALID,97.8618,VALID,0.107441,VALID,19.3128,VALID,136,VALID,0.241406,
2012-02-26, 02:03:04,VALID,913.716,VALID,0,VALID,97.8465,VALID,0,VALID,19.3113,VALID,136,VALID,0,
2012-02-26, 02:04:04,VALID,913.739,VALID,0,VALID,97.8542,VALID,0,VALID,19.2918,VALID,136,VALID,0,
2012-02-26, 02:05:04,VALID,913.767,VALID,0,VALID,97.8618,VALID,0,VALID,19.3323,VALID,136,VALID,0,
2012-02-26, 02:06:04,VALID,913.799,VALID,0,VALID,97.8694,VALID,0,VALID,19.2933,VALID,136,VALID,0,
2012-02-26, 02:07:04,VALID,913.795,VALID,0,VALID,97.8542,VALID,0,VALID,19.2334,VALID,136,VALID,0,
2012-02-26, 02:08:04,VALID,913.801,VALID,0,VALID,97.8694,VALID,0,VALID,19.2528,VALID,136,VALID,0,
2012-02-26, 02:09:04,VALID,913.802,VALID,0,VALID,97.8618,VALID,0,VALID,19.2723,VALID,136,VALID,0,
2012-02-26, 02:10:04,VALID,913.794,VALID,0,VALID,97.8694,VALID,0,VALID,19.2723,VALID,136,VALID,0,
2012-02-26, 02:11:04,VALID,913.774,VALID,0,VALID,97.8847,VALID,0.107441,VALID,19.2918,VALID,136,VALID,0,
2012-02-26, 02:12:04,VALID,913.802,VALID,0,VALID,97.8923,VALID,0,VALID,19.3128,VALID,136,VALID,0,
2012-02-26, 02:13:04,VALID,913.775,VALID,0,VALID,97.877,VALID,0,VALID,19.3113,VALID,136,VALID,0,
2012-02-26, 02:14:04,VALID,913.724,VALID,0,VALID,97.8694,VALID,0,VALID,19.3308,VALID,136,VALID,0,
2012-02-26, 02:15:04,VALID,913.721,VALID,0,VALID,97.877,VALID,0,VALID,19.3518,VALID,136,VALID,0,
2012-02-26, 02:16:04,VALID,913.665,VALID,0,VALID,97.8618,VALID,0,VALID,19.3308,VALID,136,VALID,0,
2012-02-26, 02:17:04,VALID,913.644,VALID,0.2,VALID,97.877,VALID,0,VALID,19.3308,VALID,136,VALID,0,
2012-02-26, 02:18:04,VALID,913.629,VALID,0,VALID,97.8618,VALID,0,VALID,19.3713,VALID,136,VALID,0,
2012-02-26, 02:19:04,VALID,913.625,VALID,0,VALID,97.877,VALID,0,VALID,19.3503,VALID,136,VALID,0.169531,
2012-02-26, 02:20:04,VALID,913.616,VALID,0,VALID,97.877,VALID,0,VALID,19.3503,VALID,136,VALID,0.06875,
2012-02-26, 02:21:04,VALID,913.605,VALID,0,VALID,97.8618,VALID,0,VALID,19.3908,VALID,136,VALID,0.241406,
2012-02-26, 02:22:04,VALID,913.543,VALID,0,VALID,97.8618,VALID,0,VALID,19.4298,VALID,136,VALID,0,
2012-02-26, 02:23:04,VALID,913.561,VALID,0,VALID,97.877,VALID,0,VALID,19.5063,VALID,136,VALID,0,
2012-02-26, 02:24:04,VALID,913.521,VALID,0,VALID,97.8694,VALID,0,VALID,19.5663,VALID,136,VALID,0,
2012-02-26, 02:25:04,VALID,913.52,VALID,0,VALID,97.877,VALID,0,VALID,19.4868,VALID,136,VALID,0,
2012-02-26, 02:26:04,VALID,913.506,VALID,0,VALID,97.8694,VALID,0,VALID,19.5273,VALID,136,VALID,0,
2012-02-26, 02:27:04,VALID,913.509,VALID,0,VALID,97.877,VALID,0,VALID,19.5468,VALID,136,VALID,0,
2012-02-26, 02:28:04,VALID,913.503,VALID,0,VALID,97.8923,VALID,0,VALID,19.5453,VALID,136,VALID,0,
2012-02-26, 02:29:04,VALID,913.528,VALID,0,VALID,97.8847,VALID,0,VALID,19.5858,VALID,136,VALID,0,
2012-02-26, 02:30:04,VALID,913.538,VALID,0,VALID,97.8847,VALID,0,VALID,19.5468,VALID,136,VALID,0.36875,
2012-02-26, 02:31:04,VALID,913.534,VALID,0,VALID,97.8923,VALID,0,VALID,19.4868,VALID,136,VALID,0.463281,
2012-02-26, 02:32:04,VALID,913.5,VALID,0,VALID,97.8847,VALID,0,VALID,19.4883,VALID,136,VALID,0.190234,
2012-02-26, 02:33:04,VALID,913.529,VALID,0,VALID,97.8847,VALID,0,VALID,19.4688,VALID,136,VALID,0.444922,
2012-02-26, 02:34:04,VALID,913.515,VALID,0,VALID,97.8542,VALID,0,VALID,19.4103,VALID,24,VALID,1.04492,
2012-02-26, 02:35:04,VALID,913.53,VALID,0,VALID,97.8618,VALID,0,VALID,19.3908,VALID,26,VALID,0.922266,
2012-02-26, 02:36:04,VALID,913.511,VALID,0,VALID,97.8694,VALID,0,VALID,19.3908,VALID,26,VALID,0.580859,
2012-02-26, 02:37:05,VALID,913.535,VALID,0,VALID,97.8847,VALID,0,VALID,19.4103,VALID,26,VALID,0.484375,
2012-02-26, 02:38:05,VALID,913.573,VALID,0,VALID,97.8465,VALID,0,VALID,19.4283,VALID,26,VALID,0.636328,
2012-02-26, 02:39:05,VALID,913.612,VALID,0,VALID,97.8618,VALID,0,VALID,19.4103,VALID,26,VALID,0.784375,
2012-02-26, 02:40:05,VALID,913.646,VALID,0,VALID,97.877,VALID,0,VALID,19.4103,VALID,26,VALID,0.923047,
2012-02-26, 02:41:05,VALID,913.627,VALID,0,VALID,97.8694,VALID,0,VALID,19.4283,VALID,26,VALID,1.13906,
2012-02-26, 02:42:05,VALID,913.647,VALID,0,VALID,97.8694,VALID,0,VALID,19.4478,VALID,26,VALID,1.10312,
2012-02-26, 02:43:05,VALID,913.649,VALID,0,VALID,97.8618,VALID,0,VALID,19.4493,VALID,26,VALID,0.890625,
2012-02-26, 02:44:05,VALID,913.641,VALID,0,VALID,97.8694,VALID,0,VALID,19.4283,VALID,26,VALID,0.830859,
2012-02-26, 02:45:05,VALID,913.651,VALID,0,VALID,97.877,VALID,0,VALID,19.4478,VALID,26,VALID,0.821094,
2012-02-26, 02:46:05,VALID,913.65,VALID,0,VALID,97.8694,VALID,0,VALID,19.4478,VALID,26,VALID,0.665234,
2012-02-26, 02:47:05,VALID,913.636,VALID,0,VALID,97.877,VALID,0,VALID,19.4478,VALID,26,VALID,0.580469,
2012-02-26, 02:48:05,VALID,913.621,VALID,0,VALID,97.8847,VALID,0,VALID,19.4673,VALID,26,VALID,0.517578,
2012-02-26, 02:49:05,VALID,913.581,VALID,0,VALID,97.8923,VALID,0,VALID,19.4688,VALID,26,VALID,0.678516,
2012-02-26, 02:50:05,VALID,913.617,VALID,0,VALID,97.8847,VALID,0,VALID,19.4478,VALID,26,VALID,0.566797,
2012-02-26, 02:51:05,VALID,913.634,VALID,0,VALID,97.8694,VALID,0,VALID,19.4688,VALID,26,VALID,0.712891,
2012-02-26, 02:52:05,VALID,913.635,VALID,0,VALID,97.8618,VALID,0.107441,VALID,19.4478,VALID,26,VALID,0.766797,
2012-02-26, 02:53:05,VALID,913.675,VALID,0,VALID,97.877,VALID,0,VALID,19.4493,VALID,26,VALID,0.786719,
2012-02-26, 02:54:05,VALID,913.688,VALID,0,VALID,97.8694,VALID,0,VALID,19.4493,VALID,26,VALID,0.924609,
2012-02-26, 02:55:05,VALID,913.677,VALID,0,VALID,97.8694,VALID,0,VALID,19.4478,VALID,26,VALID,0.776953,
2012-02-26, 02:56:05,VALID,913.692,VALID,0,VALID,97.8847,VALID,0.107441,VALID,19.4478,VALID,26,VALID,0.669922,
2012-02-26, 02:57:05,VALID,913.705,VALID,0,VALID,97.8847,VALID,0.107441,VALID,19.4688,VALID,26,VALID,0.598828,
2012-02-26, 02:58:05,VALID,913.64,VALID,0,VALID,97.877,VALID,0,VALID,19.4478,VALID,26,VALID,0.586719,
2012-02-26, 02:59:05,VALID,913.592,VALID,0,VALID,97.877,VALID,0,VALID,19.4688,VALID,26,VALID,0.717578,
2012-02-26, 03:00:05,VALID,913.579,VALID,0,VALID,97.8923,VALID,0,VALID,19.4688,VALID,26,VALID,0.718359,
2012-02-26, 03:01:05,VALID,913.556,VALID,0,VALID,97.877,VALID,0,VALID,19.4688,VALID,26,VALID,0.899219,
2012-02-26, 03:02:05,VALID,913.568,VALID,0,VALID,97.8847,VALID,0,VALID,19.4883,VALID,26,VALID,0.779297,
2012-02-26, 03:03:05,VALID,913.547,VALID,0,VALID,97.9152,VALID,0,VALID,19.5093,VALID,26,VALID,1.13047,
2012-02-26, 03:04:05,VALID,913.568,VALID,0,VALID,97.8847,VALID,0,VALID,19.5078,VALID,26,VALID,0.914844,
2012-02-26, 03:05:05,VALID,913.545,VALID,0,VALID,97.8923,VALID,0,VALID,19.5078,VALID,26,VALID,0.819531,
2012-02-26, 03:06:05,VALID,913.542,VALID,0,VALID,97.9075,VALID,0,VALID,19.5078,VALID,26,VALID,0.902734,
2012-02-26, 03:07:05,VALID,913.522,VALID,0,VALID,97.9075,VALID,0,VALID,19.5078,VALID,26,VALID,0.576172,
2012-02-26, 03:08:05,VALID,913.514,VALID,0,VALID,97.8999,VALID,0,VALID,19.5273,VALID,26,VALID,0.569141,
2012-02-26, 03:09:05,VALID,913.516,VALID,0,VALID,97.8999,VALID,0,VALID,19.5078,VALID,26,VALID,0.584375,
2012-02-26, 03:10:05,VALID,913.523,VALID,0,VALID,97.8999,VALID,0,VALID,19.5468,VALID,26,VALID,0.328906,
2012-02-26, 03:11:05,VALID,913.52,VALID,0,VALID,97.9075,VALID,0,VALID,19.5483,VALID,26,VALID,0.319141,
2012-02-26, 03:12:05,VALID,913.531,VALID,0,VALID,97.8923,VALID,0,VALID,19.5678,VALID,26,VALID,0,
2012-02-26, 03:13:05,VALID,913.547,VALID,0,VALID,97.9075,VALID,0,VALID,19.5468,VALID,26,VALID,0.232812,
2012-02-26, 03:14:05,VALID,913.585,VALID,0,VALID,97.8847,VALID,0,VALID,19.5858,VALID,26,VALID,0.476172,
2012-02-26, 03:15:05,VALID,913.589,VALID,0,VALID,97.9075,VALID,0,VALID,19.5858,VALID,26,VALID,0.698828,
2012-02-26, 03:16:05,VALID,913.586,VALID,0,VALID,97.8923,VALID,0,VALID,19.5648,VALID,26,VALID,0.575781,
2012-02-26, 03:17:05,VALID,913.586,VALID,0,VALID,97.8999,VALID,0.107441,VALID,19.5843,VALID,26,VALID,0.509766,
2012-02-26, 03:18:05,VALID,913.562,VALID,0,VALID,97.8923,VALID,0,VALID,19.5843,VALID,26,VALID,0.495703,
2012-02-26, 03:19:05,VALID,913.525,VALID,0,VALID,97.8923,VALID,0.107441,VALID,19.6248,VALID,26,VALID,0.421094,
2012-02-26, 03:20:05,VALID,913.456,VALID,0,VALID,97.8847,VALID,0.107441,VALID,19.5843,VALID,26,VALID,0.551953,
2012-02-26, 03:21:05,VALID,913.475,VALID,0,VALID,97.8923,VALID,0.107441,VALID,19.6038,VALID,26,VALID,0.579687,
2012-02-26, 03:22:05,VALID,913.446,VALID,0,VALID,97.8923,VALID,0,VALID,19.6038,VALID,26,VALID,0.608203,
2012-02-26, 03:23:05,VALID,913.415,VALID,0,VALID,97.8847,VALID,0,VALID,19.6038,VALID,26,VALID,0.599609,
2012-02-26, 03:24:05,VALID,913.399,VALID,0,VALID,97.8923,VALID,0,VALID,19.5843,VALID,26,VALID,0.863281,
2012-02-26, 03:25:05,VALID,913.335,VALID,0,VALID,97.8694,VALID,0,VALID,19.5843,VALID,27,VALID,0.705469,
2012-02-26, 03:26:05,VALID,913.339,VALID,0,VALID,97.877,VALID,0,VALID,19.5453,VALID,27,VALID,0.528906,
2012-02-26, 03:27:05,VALID,913.316,VALID,0,VALID,97.8847,VALID,0,VALID,19.5453,VALID,27,VALID,0.513281,
2012-02-26, 03:28:05,VALID,913.296,VALID,0,VALID,97.8847,VALID,0,VALID,19.5663,VALID,27,VALID,0.210938,
2012-02-26, 03:29:05,VALID,913.23,VALID,0,VALID,97.8923,VALID,0.107441,VALID,19.5648,VALID,27,VALID,0.367188,
2012-02-26, 03:30:05,VALID,913.235,VALID,0,VALID,97.8999,VALID,0,VALID,19.5858,VALID,27,VALID,0.442187,
2012-02-26, 03:31:05,VALID,913.239,VALID,0,VALID,97.8999,VALID,0,VALID,19.5858,VALID,27,VALID,0.503125,
2012-02-26, 03:32:05,VALID,913.206,VALID,0,VALID,97.8847,VALID,0,VALID,19.6248,VALID,27,VALID,0.521094,
2012-02-26, 03:33:05,VALID,913.231,VALID,0,VALID,97.8999,VALID,0,VALID,19.6053,VALID,27,VALID,0.344141,
2012-02-26, 03:34:05,VALID,913.217,VALID,0,VALID,97.8847,VALID,0.107441,VALID,19.6053,VALID,27,VALID,0.278125,
2012-02-26, 03:35:05,VALID,913.212,VALID,0,VALID,97.8847,VALID,0,VALID,19.6053,VALID,27,VALID,0.311719,
2012-02-26, 03:36:05,VALID,913.192,VALID,0,VALID,97.8999,VALID,0.107441,VALID,19.6038,VALID,27,VALID,0.23125,
2012-02-26, 03:37:05,VALID,913.182,VALID,0,VALID,97.8847,VALID,0,VALID,19.6038,VALID,27,VALID,0,
2012-02-26, 03:38:05,VALID,913.199,VALID,0,VALID,97.877,VALID,0,VALID,19.6233,VALID,27,VALID,0,
2012-02-26, 03:39:05,VALID,913.172,VALID,0,VALID,97.8999,VALID,0,VALID,19.6623,VALID,27,VALID,0,
2012-02-26, 03:40:05,VALID,913.181,VALID,0,VALID,97.8847,VALID,0,VALID,19.6818,VALID,27,VALID,0,
2012-02-26, 03:41:05,VALID,913.181,VALID,0,VALID,97.877,VALID,0.107441,VALID,19.6818,VALID,27,VALID,0,
2012-02-26, 03:42:05,VALID,913.186,VALID,0,VALID,97.8923,VALID,0,VALID,19.7418,VALID,27,VALID,0,
2012-02-26, 03:43:05,VALID,913.229,VALID,0,VALID,97.8923,VALID,0,VALID,19.7403,VALID,27,VALID,0,
2012-02-26, 03:44:05,VALID,913.258,VALID,0,VALID,97.8847,VALID,0.107441,VALID,19.7403,VALID,27,VALID,0.351172,
2012-02-26, 03:45:05,VALID,913.281,VALID,0,VALID,97.8847,VALID,0,VALID,19.7403,VALID,27,VALID,0.380078,
2012-02-26, 03:46:05,VALID,913.295,VALID,0,VALID,97.8999,VALID,0.107441,VALID,19.7403,VALID,27,VALID,0.611328,
2012-02-26, 03:47:05,VALID,913.313,VALID,0,VALID,97.8694,VALID,0,VALID,19.7223,VALID,27,VALID,0.469922,